Weather History for Beckley, WV

Change the Weather History Date:

Monday, November 12, 2012

  Actual Average Record
Temperature  
Mean Temperature 51 °F 45 °F  
Max Temperature 64 °F 55 °F 75 °F (1917)
Min Temperature 37 °F 36 °F 14 °F (1950)
Degree Days  
Heating Degree Days 14 20  
Month to date heating degree days 272 215  
Since 1 July heating degree days 800 721  
Cooling Degree Days 0 0  
Month to date cooling degree days 0 0  
Year to date cooling degree days 761 556  
Moisture  
Dew Point 45 °F    
Average Humidity 74    
Maximum Humidity 96    
Minimum Humidity 52    
Precipitation  
Precipitation 0.26 in 0.09 in 1.40 in (2003)
Month to date precipitation 0.48 1.15  
Year to date precipitation 40.98 36.39  
Snow  
Snow 0.00 in - - ()
Month to date snowfall 0.0  
Since 1 September snowfall 22.9  
Snow Depth 0.00 in    
Sea Level Pressure  
Sea Level Pressure 30.22 in    
Wind  
Wind Speed 11 mph (SW)    
Max Wind Speed 25 mph    
Max Gust Speed 32 mph    
Visibility 9 miles    
Events Rain    
T = Trace of Precipitation, MM = Missing Value Source: NWS Daily Summary

Daily Weather History Graph

Daily Weather History Graph

Search for Another Location

Airport:

Trip Planner

Search our weather history database for the weather conditions in past years. The results will help you decide how hot, cold, wet, or windy it might be!

Date:

Astronomy

Nov. 12, 2012 Rise Set
Actual Time 7:02 AM EST 5:14 PM EST
Civil Twilight 6:34 AM EST 5:42 PM EST
Nautical Twilight 6:02 AM EST 6:14 PM EST
Astronomical Twilight 5:31 AM EST 6:45 PM EST
Moon 5:26 AM EST (11/12) 4:18 PM EST (11/12)
Length of Visible Light 11h 08m
Length of Day
10h 12m
Waning Crescent, 2% of the Moon is Illuminated
Nov 12
Waning Crescent
Nov 13
New
Nov 20
First Quarter
Nov 28
Full
Dec 6
Last Quarter

Hourly Weather History & Observations

Time (EST) Temp. Windchill Dew Point Humidity Pressure Visibility Wind Dir Wind Speed Gust Speed Precip Events Conditions
12:51 AM 57.0 °F - 45.0 °F 64% 30.26 in 10.0 mi South 8.1 mph - N/A   Partly Cloudy
1:51 AM 57.0 °F - 46.0 °F 67% 30.25 in 10.0 mi SSE 6.9 mph - N/A   Partly Cloudy
2:51 AM 57.9 °F - 46.9 °F 67% 30.23 in 10.0 mi SSE 8.1 mph - N/A   Scattered Clouds
3:51 AM 57.9 °F - 48.0 °F 70% 30.22 in 10.0 mi SSE 9.2 mph 17.3 mph N/A   Overcast
4:51 AM 59.0 °F - 48.0 °F 67% 30.22 in 10.0 mi SSE 10.4 mph 18.4 mph N/A   Overcast
5:51 AM 59.0 °F - 48.0 °F 67% 30.21 in 10.0 mi SSE 8.1 mph 17.3 mph N/A   Overcast
6:51 AM 59.0 °F - 48.0 °F 67% 30.20 in 10.0 mi SSE 9.2 mph - N/A   Overcast
7:51 AM 59.0 °F - 46.9 °F 64% 30.20 in 10.0 mi SSE 17.3 mph 31.1 mph N/A   Clear
8:51 AM 60.1 °F - 46.9 °F 62% 30.23 in 10.0 mi South 15.0 mph 24.2 mph N/A   Scattered Clouds
9:51 AM 61.0 °F - 46.9 °F 60% 30.24 in 10.0 mi South 12.7 mph 19.6 mph N/A   Overcast
10:51 AM 63.0 °F - 48.9 °F 60% 30.22 in 10.0 mi SSE 8.1 mph 18.4 mph N/A   Mostly Cloudy
11:51 AM 63.0 °F - 48.9 °F 60% 30.18 in 10.0 mi South 11.5 mph 19.6 mph N/A   Partly Cloudy
12:51 PM 64.0 °F - 48.0 °F 56% 30.14 in 10.0 mi SSE 16.1 mph 23.0 mph N/A   Mostly Cloudy
1:51 PM 64.0 °F - 48.0 °F 56% 30.10 in 10.0 mi SSE 12.7 mph 24.2 mph N/A   Clear
2:51 PM 64.0 °F - 46.9 °F 54% 30.08 in 10.0 mi South 16.1 mph 27.6 mph N/A   Mostly Cloudy
3:51 PM 63.0 °F - 46.9 °F 56% 30.08 in 10.0 mi South 10.4 mph 21.9 mph N/A   Overcast
4:51 PM 60.1 °F - 50.0 °F 69% 30.10 in 10.0 mi SSW 11.5 mph 21.9 mph 0.00 in Rain Light Rain
5:51 PM 57.0 °F - 53.1 °F 87% 30.13 in 10.0 mi SSW 5.8 mph - 0.05 in Rain Light Rain
6:07 PM 53.6 °F - 51.8 °F 94% 30.19 in 10.0 mi NW 19.6 mph 27.6 mph 0.00 in Rain Light Rain
6:18 PM 50.0 °F - 46.4 °F 87% 30.21 in 3.0 mi WNW 17.3 mph 29.9 mph 0.04 in Rain Rain
6:51 PM 46.9 °F - 44.1 °F 90% 30.23 in 8.0 mi NW 8.1 mph 18.4 mph 0.08 in Rain Light Rain
7:26 PM 46.4 °F 41.1 °F 42.8 °F 87% 30.25 in 10.0 mi NW 11.5 mph 17.3 mph 0.02 in Rain Light Rain
7:51 PM 46.0 °F 41.0 °F 43.0 °F 89% 30.25 in 8.0 mi WNW 10.4 mph - 0.02 in Rain Light Rain
8:15 PM 44.6 °F 40.2 °F 42.8 °F 93% 30.27 in 7.0 mi NW 8.1 mph 17.3 mph 0.01 in Rain Light Rain
8:43 PM 42.8 °F 36.6 °F 41.0 °F 93% 30.29 in 2.5 mi WNW 11.5 mph 20.7 mph 0.04 in Rain Rain
8:51 PM 43.0 °F 36.4 °F 41.0 °F 93% 30.27 in 3.0 mi NW 12.7 mph 19.6 mph 0.05 in Rain Light Rain
9:49 PM 39.2 °F 33.0 °F 37.4 °F 93% 30.31 in 8.0 mi NNW 9.2 mph - 0.00 in Rain Light Rain
9:51 PM 39.0 °F 31.8 °F 37.0 °F 93% 30.32 in 8.0 mi NNW 11.5 mph - 0.00 in Rain Light Rain
10:51 PM 39.0 °F 34.8 °F 37.0 °F 93% 30.32 in 10.0 mi NW 5.8 mph - 0.02 in Rain Light Rain
10:55 PM 39.2 °F 35.9 °F 37.4 °F 93% 30.32 in 10.0 mi NNW 4.6 mph - 0.00 in Rain Light Rain
11:30 PM 37.4 °F 32.8 °F 35.6 °F 93% 30.32 in 9.0 mi NNW 5.8 mph - 0.04 in Rain Light Rain
11:51 PM 37.0 °F 31.6 °F 35.1 °F 93% 30.33 in 10.0 mi NNW 6.9 mph - 0.04 in Rain Light Rain